International Virtual Aviation Organisation

Russian Federation and Kazakhstan MCD

 

Карточка аэропорта USSS

Внимание!
Информация на этой странице в стадии наполнения.
Если вы не увидели какой-то информации, или заметили неточность - пожалуйста сообщите нам!
Спасибо!
Команда RU-STAFF
Название аэропортаКольцово
Название аэропорта (англ.)Koltsovo
Превышение766 ft. (233.5 m.)
Координаты56°44.586', 60°48.186'
Высота перехода900m
Эшелон переходаQFE>=739mm:FL050; QFE 712mm-738mm:FL060; QFE<=712mm:FL70
Коды ответчика5520-5557
Зона ОрВДЕкатеринбург РПИ (USSV)
Данные METARUSSS 041100Z 28002MPS 8000 -SN BKN014 M08/M09 Q1039 R26R/390037 NOSIG RMK QFE758/1011
Проноз погоды (TAF)USSS 040751Z 0409/0509 28003G09MPS 6000 -SN BKN016 BECMG 0410/0412 3100 -SN BR SCT011
NOTAMshow/hide NOTAM
AWOS   TABLE

Информация о ВПП

ВПП Длина ВПП (м.) Покрытие Курс ВПП Частота ILS
08L3004Асфальтобетон75111.7
26R3004Асфальтобетон255110.5
08R3026Бетон79109.9
26L3026Бетон259109.5

Диспетчерские позиции

Позывной Наименование органа УВД Частота
USSS_APPКольцово-Подход125.9
USSS_R_APPКольцово-Круг118.7
USSS_TWRКольцово-Старт124.3
USSS_GNDКольцово-Руление119.0
USSSFM1Машина сопровождения119.000
USSV_FSS_CTRКольцово Транзит131.900



Спутниковое изображение